Location: Angwan Shehu
(11.2514°N, 7.4613°E)
Time: 11:34:22
(UTC+00:00)

SR - Visible Passes

Search period start: 18 April 2021 00:00
Search period end: 28 April 2021 00:00
Orbit: 573 x 882 km, 66.7° (Epoch: 17 April)

Date Brightness Start Highest point End Pass type
(mag) Time Alt. Az. Time Alt. Az. Time Alt. Az.
19 Apr ? 17:55:44 10° NW 18:00:01 25° WSW 18:04:00 10° SSW visible
20 Apr ? 04:45:34 10° SSE 04:49:15 20° ESE 04:53:09 10° ENE visible
22 Apr ? 04:46:37 10° S 04:51:29 46° ESE 04:56:47 10° NE visible
23 Apr ? 03:58:28 10° SSE 04:01:58 18° ESE 04:05:38 10° ENE visible
24 Apr ? 04:48:41 10° SSW 04:53:50 77° WNW 04:59:27 10° NNE visible
25 Apr ? 03:59:20 10° S 04:04:11 42° ESE 04:09:25 10° NE visible
26 Apr ? 03:11:23 10° SE 03:14:39 17° ESE 03:18:04 10° ENE visible
26 Apr ? 04:51:37 10° SW 04:56:20 34° WNW 05:01:23 10° N visible
27 Apr ? 04:02:24 17° SSW 04:06:31 84° WNW 04:12:10 10° NNE visible
